Regional Weather Roundup
Issued by NWS

Home | Current Version | Previous Version | Graphics & Text | Print | Product List | Glossary On
Versions: 1 2 3 4 5 6 7 8 9 10 11 12 13 14 15 16 17 18 19 20 21 22 23 24 25 26 27 28 29 30 31 32 33 34 35 36 37 38 39 40 41 42 43 44 45 46 47 48 49 50
000
ASUS43 KDTX 261510
RWRMI
MICHIGAN HOURLY REGIONAL WEATHER ROUNDUP
NATIONAL WEATHER SERVICE DETROIT/PONTIAC MI
ISSUED BY NATIONAL WEATHER SERVICE GRAND RAPIDS MI
1100 AM EDT FRI MAY 26 2017

NOTE: "FAIR" INDICATES FEW OR NO CLOUDS BELOW 12,000 FEET WITH NO
SIGNIFICANT WEATHER AND/OR OBSTRUCTION TO VISIBILITY.

MIZ047>049-052>055-059>063-066>070-074>076-081>083-261600-
SOUTHEAST LOWER MICHIGAN

CITY           SKY/WX    TMP DP  RH WIND       PRES   REMARKS
ADRIAN         PTSUNNY   62  53  72 VRB6      29.87R
ALMA           PTSUNNY   62  53  72 NW6G16    29.85R
ANN ARBOR      CLOUDY    60  53  77 W10       29.85R
BAD AXE        CLOUDY    56  56 100 NW10      29.82R
DETROIT CITY   CLOUDY    61  53  75 VRB7      29.82S
DETROIT        CLOUDY    59  53  80 NW8       29.85R
FLINT          CLOUDY    61  53  75 W9        29.83S
GROSSE ILE     CLOUDY    59  52  77 NW8       29.83R
HILLSDALE      CLOUDY    61  52  72 NW7       29.87R
HOWELL         PTSUNNY   60  50  69 W13       29.85R

CITY           SKY/WX    TMP DP  RH WIND       PRES   REMARKS
JACKSON        CLOUDY    61  51  70 NW7       29.86R
LANSING        CLOUDY    61  50  67 NW10      29.86R
MASON          CLOUDY    60  53  77 NW3       29.86R
MONROE         CLOUDY    60  53  77 NW8       29.85R
MT. CLEMENS    CLOUDY    60  57  91 NW8       29.81S
PONTIAC        CLOUDY    59  52  77 NW10G17   29.82R
PORT HOPE        N/A     53  53 100 NW8       29.79R
PORT HURON     CLOUDY    59  52  77 NW7       29.81R
TRI CITIES     CLOUDY    63  54  72 N8        29.83R
YPSILANTI      CLOUDY    61  54  77 NW8       29.85R
$$
MIZ043>046-050>051-056>058-064>065-071>073-077>080-261600-
SOUTHWEST LOWER MICHIGAN

CITY           SKY/WX    TMP DP  RH WIND       PRES   REMARKS
BATTLE CREEK   CLOUDY    56  53  90 CALM      29.88S
BENTON HARBOR  SUNNY     63  53  70 W6        29.88R
BIG RAPIDS     PTSUNNY   63  50  62 CALM      29.85R
COLDWATER      CLOUDY    58  55  88 CALM      29.88S
HOLLAND        MOSUNNY   59  53  80 CALM      29.87S
GRAND RAPIDS   PTSUNNY   61  55  81 SW8       29.86R
KALAMAZOO      PTSUNNY   61  52  72 VRB3      29.87F
MARSHALL       CLOUDY    60  55  84 W9        29.87S
MOUNT PLEASANT CLOUDY    62  52  69 NW5       29.83S
MUSKEGON       PTSUNNY   58  51  78 SW8       29.86S
STURGIS        PTSUNNY   60  54  79 NW3       29.87F
$$
MIZ016>042-261600-
NORTHERN LOWER MICHIGAN

CITY           SKY/WX    TMP DP  RH WIND       PRES   REMARKS
ALPENA         CLOUDY    59  54  83 N9        29.82R
BEAVER ISLAND  MOSUNNY   62  53  72 NW6       29.83F
BELLAIRE       CLOUDY    61  51  70 CALM      29.84S
CADILLAC       CLOUDY    60  51  74 NE8       29.84F
CHARLEVOIX     SUNNY     57  53  85 NW3       29.87S
GAYLORD        CLOUDY    61  50  67 VRB6      29.83S
HOUGHTON LAKE  CLOUDY    61  50  67 NW10      29.84S
MANISTEE       PTSUNNY   61  53  75 CALM      29.85R
OSCODA         CLOUDY    58  56  92 W10G16    29.81R
PELLSTON       PTSUNNY   65  54  67 NW7       29.83S
TRAVERSE CITY  MOSUNNY   62  52  69 N5        29.83S
LUDINGTON      MOSUNNY   55  50  84 W8        29.86S
$$
MIZ007>008-015-261600-
EASTERN UPPER MICHIGAN

CITY           SKY/WX    TMP DP  RH WIND       PRES   REMARKS
KINROSS        SUNNY     64  52  64 E5        29.83R
MACKINAC ISLAN MOSUNNY   61  57  85 W5        29.82F
NEWBERRY       MOSUNNY   63  53  70 N5        29.82F
S. S. MARIE    MOSUNNY   65  53  65 SW6       29.81R
$$
MIZ004>006-011>014-085-261600-
CENTRAL UPPER MICHIGAN

CITY           SKY/WX    TMP DP  RH WIND       PRES   REMARKS
MANISTIQUE     MOSUNNY   65  52  62 S7        29.82F
ESCANABA       SUNNY     63  51  65 S3        29.84S
MENOMINEE      CLOUDY    61  54  77 E3        29.86S
SAWYER-GWINN   SUNNY     64  48  55 S9        29.83S
$$
MIZ001>003-009>011-084-261600-
WESTERN UPPER MICHIGAN

CITY           SKY/WX    TMP DP  RH WIND       PRES   REMARKS
IRON MOUNTAIN  CLOUDY    59  51  75 S5        29.83S
HOUGHTON       CLOUDY    59  49  69 S6        29.81S
COPPER HARBOR    N/A     64  49  57 S7        29.80S
IRONWOOD       CLOUDY    63  55  75 S5        29.79S
$$

ABBREVIATIONS USED IN REMARKS
   TC - TEMPERATURE IN CELSIUS
  WCI - WIND CHILL INDEX
   HX - HEAT INDEX
  VSB - VISIBILITY





USA.gov is the U.S. government's official web portal to all federal, state and local government web resources and services.